Other Public Products
Issued by NWS Grand Forks, ND

Home | Current Version | Previous Version | Text Only | Print | Product List | Glossary Off
Versions: 1 2 3 4 5 6 7 8 9 10 11 12 13 14 15 16 17 18 19 20 21 22 23 24 25 26 27 28 29 30 31 32 33 34 35 36 37 38 39 40 41 42 43 44 45 46 47 48 49 50

000
FPUS83 KFGF 242210
OPUFGF
PRAIRIE TO PINES WEATHER ROUNDUP
NATIONAL WEATHER SERVICE EASTERN NORTH DAKOTA/GRAND FORKS ND
400 PM CST SAT FEB 24 2018

 **SATELLITE DATA USED TO AUGMENT SKY COVER AT AUTOMATED STATIONS**
 *****  WEATHER ACROSS EASTERN NORTH DAKOTA  *****

CITY           SKY/WX    TMP DP  RH WIND       PRES   REMARKS
GRAND FORKS    CLOUDY    16   9  74 S13       29.81F WCI   2
GRND FORKS AFB CLOUDY    14  10  85 S14       29.79F BLWGSNOWWCI  -1
GRND FORKS NWS   N/A     15  10  81 S9        29.79F WCI   3
BUXTON           N/A     14  13  97 SE7         N/A  WCI   4
DEVILS LAKE    LGT SNOW  19  16  86 S13       29.70F FOG     WCI   7
FARGO          HVY SNOW  16  13  88 NE5       29.77F VSB 1/4 WCI   9
WAHPETON ARPT  CLOUDY    19  18  93 NE9       29.74F VSB 1/2 WCI   9
$$

 *****  WEATHER ACROSS CENTRAL AND WESTERN NORTH DAKOTA  *****

CITY           SKY/WX    TMP DP  RH WIND       PRES   REMARKS
JAMESTOWN      SNOW      14  11  87 SE9       29.71F VSB 1/2 WCI   2
BISMARCK       CLOUDY    22  16  78 SW8       29.69F WCI  12
MINOT          FLURRIES  21  13  71 SW13      29.62F WCI   9
MINOT AFB      CLOUDY    20  14  79 SW8         N/A  WCI  10
GARRISON         N/A     22  15  75 SW8       29.63F WCI  12
WILLISTON      FAIR      22  12  65 SW12      29.61F WCI  10
DICKINSON      FAIR      23  10  57 W13       29.61F WCI  11
HETTINGER      FAIR      20  10  65 W15       29.66F WCI   6
$$

 *****  OTHER OBSERVATIONS NORTHEAST NORTH DAKOTA  *****

CITY           SKY/WX    TMP DP  RH WIND       PRES   REMARKS
WALHALLA       FAIR      25  19  80 SE13      29.75F WCI  13
LANGDON        FAIR      21  19  93 S17G23    29.70F WCI   7
CAVALIER         N/A     18  14  86 S14       29.78F WCI   4
GRAFTON        FAIR      18  12  79 S14       29.82F WCI   4
CANDO          CLOUDY    25  19  80 S12G17    29.70F HAZE    WCI  14
FORT TOTTEN      N/A     20  15  81 S9        29.95S WCI   9
ROLLA          FAIR      19  18  93 S15       29.64F FOG     WCI   5
RUGBY          LGT SNOW  19  19 100 S15       29.66F VSB 3/4 WCI   5
 ***** THE ABOVE OBSERVATIONS ARE NON NWS ARE NOT QUALITY
        CONTROLLED AND MAY MIS-REPORT RAIN FOR SNOW...
$$

 *****  OTHER OBSERVATIONS SOUTHEAST NORTH DAKOTA *****

CITY           SKY/WX    TMP DP  RH WIND       PRES   REMARKS
COOPERSTOWN    LGT SNOW  16  14  93 SE10      29.75F VSB 1   WCI   3
VALLEY CITY    LGT SNOW  14  16 100 MISG      29.75F VSB 1
OAKES            N/A     18  18 100 NE9       29.71F WCI   6
GWINNER        FOG       16  14  93 NE9       29.72F VSB 1/2 WCI   4
SHEYENNE NWR     N/A     14  12  93 E7        29.95S WCI   4
BUFFALO          N/A     14  11  88 N9          N/A  WCI   2
WYNDMERE       NOT AVBL
 ***** THE ABOVE OBSERVATIONS ARE NON NWS ARE NOT QUALITY
       CONTROLLED AND MAY MIS-REPORT RAIN FOR SNOW...
$$

  *****  WEATHER ACROSS NORTHERN MINNESOTA  *****

CITY           SKY/WX    TMP DP  RH WIND       PRES   REMARKS
FLAG ISLAND    FAIR      19  10  68 SE5       29.84F WCI  13
WARROAD        FAIR      27   9  46 CALM      29.84F
ROSEAU         FAIR      23  10  58 SW6       29.84F WCI  16
HALLOCK        FAIR      16  10  79 S14       29.82F WCI   1
THF RVR FALLS  CLOUDY    21  11  65 S6        29.82F WCI  13
HALSTAD        NOT AVBL
FOSSTON        FAIR      25  12  58 SE7       29.81F WCI  17
BAUDETTE       FAIR      24   8  50 S7        29.85F WCI  16
WASKISH        PTSUNNY   25   9  50 S6        29.85F WCI  18
CROOKSTON      FAIR      16   9  73 S5        29.83F WCI   9
$$
  *****  WEATHER ACROSS CENTRAL AND WEST MINNESOTA  *****

CITY           SKY/WX    TMP DP  RH WIND       PRES   REMARKS
BEMIDJI        CLOUDY    19   9  64 E6        29.81F WCI  11
PARK RAPIDS    CLOUDY    21  11  65 E6        29.78F WCI  13
WADENA         LGT SNOW  19  16  86 NE8       29.76F VSB 3/4 WCI   9
DETROIT LAKES  LGT SNOW  21  14  73 E6        29.77F WCI  14
MOORHEAD       LGT SNOW  14  10  85 N3        29.79F
FERGUS FALLS   LGT SNOW  19  16  86 E12       29.73F WCI   7
ELBOW LAKE     LGT SNOW  22  20  93 NE10G17   29.71F VSB 3/4 WCI  11
MORRIS MN      LGT SNOW  21  21 100 NE14      29.65F VSB 3/4 WCI   8
STAPLES        LGT SNOW  19  16  86 NE6       29.77F WCI  11
WHEATON        LGT SNOW  18  16  93 N10       29.72F VSB 3/4 WCI   6
$$
  *****  WEATHER ELSEWHERE ACROSS MINNESOTA  *****

CITY           SKY/WX    TMP DP  RH WIND       PRES   REMARKS
DULUTH         CLOUDY    24  16  71 E15       29.83F WCI  11
INTRNTL FALLS  FAIR      28  10  46 SE7       29.88F WCI  21
ELY            FAIR      25  14  63 SE7       29.90F WCI  17
CLOQUET        PTSUNNY   25  14  63 E7        29.85F WCI  17
BRAINERD       CLOUDY    25  11  55 NE8       29.79F WCI  16
HIBBING        PTSUNNY   25   9  50 E9        29.85F WCI  15
ALEXANDRIA     LGT SNOW  21  18  88 E16       29.69F VSB 3/4 WCI   7
SAINT CLOUD    LGT SNOW  23  21  92 E13       29.74F VSB 1   WCI  11
MINNEAPOLIS    SNOW      27  26  96 NE12G21   29.72F VSB 1/2 WCI  17
$$

  *****  WEATHER ACROSS SOUTH DAKOTA  *****

CITY           SKY/WX    TMP DP  RH WIND       PRES   REMARKS
SIOUX FALLS    CLOUDY    21  17  84 SW7       29.65F WCI  12
BROOKINGS      CLOUDY    19  14  81 SE7       29.65F WCI  10
WATERTOWN      LGT SNOW  13   9  84 E9        29.64F FOG     WCI   1
HURON          CLOUDY    18  15  88 NW7       29.68F WCI   9
SISSETON         N/A     13  10  88 N9        29.70F WCI   1
ABERDEEN       SNOW      20  16  84 N9        29.69F VSB 1/2 WCI   9
MITCHELL       CLOUDY    18  14  84 NW5       29.70F WCI  11
PIERRE         FAIR      17  13  84 NW8       29.69F WCI   7
MOBRIDGE       LGT SNOW  22  18  85 CALM      29.66F VSB 3/4
RAPID CITY     CLOUDY    26  17  68 N17       29.68R WCI  13
$$

  *****  SOME WEATHER IN NEARBY STATES *****

CITY           SKY/WX    TMP DP  RH WIND       PRES   REMARKS
GLASGOW MT     CLOUDY    25  15  66 W18G29    29.61S WCI  11
GREAT FALLS MT FAIR      27  15  61 SW10      29.67S WCI  17
CHEYENNE WY    FAIR      25   2  37 W24G37    29.73R WCI   9
SCOTTSBLUFF NE CLOUDY    32  12  43 NW22G30   29.75R WCI  19
OMAHA NE       CLOUDY    30  26  85 W12       29.69F WCI  20
DES MOINES IA  DRZL/FOG  34  33  96 CALM      29.65F VSB 1
DAVENPORT IA   CLOUDY    39  37  92 E17G24    29.74F FOG
CHICAGO IL     LGT RAIN  41  35  79 E13       29.87F
EAU CLAIRE WI  LGT SNOW  32  25  75 E13       29.79F WCI  22
LA CROSSE WI   CLOUDY    36  28  73 E12G20    29.74F
$$

  *****  SOME NATIONAL WEATHER *****

CITY           SKY/WX    TMP DP  RH WIND       PRES   REMARKS
LA GUARDIA NY  CLOUDY    48  41  76 NW10      30.18S
RALEIGH NC     PTSUNNY   76  60  57 S14       30.06F
ATLANTA GA     PTSUNNY   77  57  50 SW15G22   30.05F
NEW ORLEANS LA FAIR      80  69  69 S15G25    29.98F
OKLAHOMA CITY  FAIR      51  39  63 W17       29.84R
ALBUQUERQUE NM FAIR      43   5  20 W9        30.00F
SALT LAKE CITY CLOUDY    31  14  49 S18G25    29.98F WCI  19
LOS ANGELES CA FAIR      59  30  33 W15       30.25F
BOISE ID       LGT SNOW  31  25  78 SE10      29.89F VSB 3/4 WCI  22
SEATTLE WA     PTSUNNY   43  32  65 CALM      30.13S
$$

*** WEATHER ACROSS MANITOBA...SASKATCHEWAN AND ONTARIO ***
                ***ONTARIO***

CITY           SKY/WX    TMP DP  RH WIND       PRES   REMARKS
GERALDTON      MOSUNNY   28  14  54 S9        29.99S WCI  20
THUNDER BAY    CLOUDY    21  16  79 NE7       30.03F WCI  13
SIOUX LOOKOUT  PTSUNNY   28   7  40 SW7       29.87S WCI  21
TORONTO        MOCLDY    37  25  60 SE7       30.16S
BIG TROUT LK   SUNNY     27  12  54 SW12G21   29.65F WCI  16
PICKLE LAKE    MOSUNNY   30   7  37 SW13G18   29.80F WCI  20
DRYDEN         PTSUNNY   28   9  43 S12       29.86F WCI  18
KENORA         PTSUNNY   25   7  46 S12G17    29.83F WCI  14
$$
                *** MANITOBA***

CITY           SKY/WX    TMP DP  RH WIND       PRES   REMARKS
BRANDON        LGT SNOW  19  14  79 SW7       29.64F WCI  10
DAUPHIN        SUNNY     28  10  47 SW12      29.58F WCI  18
ISLAND LAKE    MOSUNNY   30   9  40 SW14G20   29.56F WCI  20
PILOT MOUND      N/A     21  16  79 S20         N/A  WCI   6
THE PAS        CLOUDY    21  10  63 SW8       29.50F WCI  12
THOMPSON       FLURRIES  21   9  58 S8        29.48R WCI  12
WINNIPEG       CLOUDY    19  14  79 S20G26    29.76F WCI   4
LYNN LAKE      LGT SNOW  21  16  79 N3        29.44R
CHURCHILL      PTSUNNY    9   3  78 NW14      29.47R WCI  -8
GILLAM         CLOUDY    18   9  68 SW17      29.50R WCI   2
$$
                ***SASKATCHEWAN***

CITY           SKY/WX    TMP DP  RH WIND       PRES   REMARKS
ESTEVAN        MOSUNNY   21  10  63 SW13      29.57F WCI   9
KINDERSLEY     MOSUNNY   27  16  63 W12       29.54S WCI  16
LLOYDMINSTER   FLURRIES  27  19  74 NW18G25   29.51R WCI  13
PRINCE ALBERT  FLURRIES  27  16  63 NW8       29.49S WCI  18
REGINA         LGT SNOW  25  21  86 W6        29.53S VSB 1   WCI  18
YORKTON        PTSUNNY   19   9  63 SW10      29.54S WC



USA.gov is the U.S. government's official web portal to all federal, state and local government web resources and services.